Voltar ao catálogo

STARLINK-5617

AtivoComunicaçõesVLEO
NORAD 55753·PAYLOAD·🇺🇸 United States

Lançado Mar 3, 2023 de Vandenberg Space Force Base

Loading…

Próximas Passagens (próximas 24 horas)

TLE

AtualizadoSource: CelesTrak SupGP

Época: Sep 14, 2026, 22:20 UTC

1 55753C 23028N   26257.93104167  .00002159  00000+0  18093-3 0  2570
2 55753  70.0004 127.2811 0002674 271.5554 228.7445 14.98323671    15

Acompanhe STARLINK-5617 em tempo real com AllMySat

Download on the App Store